www.pogodaiklimat.ru
Время
(UTC), дата
16 19.01
17 19.01
18 19.01
19 19.01
20 19.01
21 19.01
22 19.01
23 19.01
00 20.01
01 20.01
02 20.01
03 20.01
04 20.01
05 20.01
06 20.01
07 20.01
08 20.01
09 20.01
10 20.01
11 20.01
12 20.01
13 20.01
14 20.01
15 20.01
16 20.01
17 20.01
18 20.01
19 20.01
20 20.01
21 20.01
22 20.01
23 20.01
00 21.01
01 21.01
02 21.01
03 21.01
04 21.01
05 21.01
06 21.01
07 21.01
08 21.01
09 21.01
10 21.01
11 21.01
12 21.01
13 21.01
14 21.01
15 21.01
16 21.01
17 21.01
18 21.01
19 21.01
20 21.01
21 21.01
22 21.01
23 21.01
00 22.01
01 22.01
02 22.01
03 22.01
04 22.01
05 22.01
06 22.01
07 22.01
08 22.01
09 22.01
10 22.01
11 22.01
12 22.01
13 22.01
14 22.01
15 22.01
16 22.01
17 22.01
18 22.01
19 22.01
20 22.01
21 22.01
22 22.01
23 22.01
00 23.01
01 23.01
02 23.01
03 23.01
04 23.01
05 23.01
06 23.01
07 23.01
08 23.01
09 23.01
10 23.01
11 23.01
12 23.01
13 23.01
14 23.01
15 23.01
16 23.01
17 23.01
18 23.01
19 23.01
20 23.01
21 23.01
22 23.01
23 23.01
00 24.01
01 24.01
02 24.01
03 24.01
04 24.01
05 24.01
06 24.01
07 24.01
08 24.01
09 24.01
10 24.01
11 24.01
12 24.01
13 24.01
14 24.01
15 24.01
16 24.01
17 24.01
18 24.01
19 24.01
20 24.01
21 24.01
22 24.01
23 24.01
00 25.01
01 25.01
02 25.01
03 25.01
04 25.01
05 25.01
06 25.01
07 25.01
08 25.01
09 25.01
10 25.01
11 25.01
12 25.01
13 25.01
14 25.01
15 25.01
16 25.01
17 25.01
18 25.01
19 25.01
20 25.01
21 25.01
22 25.01
23 25.01
00 26.01
01 26.01
02 26.01
03 26.01
04 26.01
05 26.01
06 26.01
07 26.01
08 26.01
09 26.01
10 26.01
11 26.01
12 26.01
13 26.01
14 26.01
15 26.01
16 26.01
17 26.01
Ветер
(напр.,м/с)
Видим. Явления Облачность Т
(С)
Тd
(С)
f
(%)
Тe
(С)
Тes
(С)
Комфортность P
(гПа)
Po
(гПа)
Тmin
(С)
Tmax
(С)
R
(мм)
R24
(мм)
S
(см)
ЮЗ 3 8000 м в посл. час дождь 10/9 120 м
[Frnb]
+5.6 +5.4 99 +2 +2 тепло 1000.2 998.4
ЮЗ 4 6000 м слаб. морось 10/9 120 м
[St]
+6.3 +6.1 99 +2 +2 тепло 1000.2 998.4
ЮЗ 3 6000 м дождь {морось} 10/9 100 м
[Frnb]
+6.5 +6.5 100 +3 +3 тепло 1000.3 998.5 +3.0 +6.6 11
ЮЗ 4 7000 м слаб. дождь 10/9 120 м
[Frnb]
+7.2 +7.0 99 +3 +3 тепло 1000.3 998.5
ЮЗ 5 4500 м дождь 10/9 120 м
[Frnb]
+7.5 +7.3 99 +3 +3 тепло 1000.1 998.3
ЮЗ 8 20 км слаб. дождь 10/9 150 м
[Frnb]
+8.9 +7.7 92 +4 +4 тепло 1000.2 998.4 3
ЮЗ 7 30 км слаб. дождь 9/9 210 м
[Sc]
+9.0 +7.2 88 +5 +5 тепло 1000.2 998.4
ЮЗ 7 7000 м слаб. морось 10/9 240 м
[Sc]
+8.4 +7.4 93 +4 +4 тепло 1000.3 998.5
ЮЗ 6 25 км слаб. дождь {морось} 10/9 200 м
[Sc]
+8.4 +6.9 90 +4 +4 тепло 1000.1 998.3 4
ЮЗ 9 20 км слаб. морось {дождь} 10/9 240 м
[Sc]
+7.9 +6.3 90 +3 +3 тепло 999.9 998.1
ЮЗ 8 16 км слаб. морось 10/9 210 м
[Frnb]
+7.1 +5.7 91 +2 +2 тепло 999.6 997.8
ЮЗ 9 10 км дождь {морось} 10/9 210 м
[Sc]
+6.6 +5.2 91 +1 +1 по сезону 999.5 997.7 0.2
ЮЗ 8 10 км дождь 10/9 270 м
[Sc]
+6.3 +4.7 89 +1 +1 тепло 999.1 997.3
ЮЗ 9 20 км дождь 9/9 330 м
[Sc]
+6.2 +4.5 89 0 0 тепло 998.6 996.8
ЮЗ 8 25 км слаб. дождь {морось} 10/9 300 м
[Sc]
+6.2 +4.0 86 +1 +1 по сезону 998.2 996.4 +6.1 +9.1 4
ЮЗ 9 20 км слаб. дождь 10/9 330 м
[Sc]
+6.0 +4.1 88 0 0 тепло 998.0 996.2
ЮЗ 8 20 км слаб. дождь 10/9 330 м
[Cu Sc]
+6.2 +4.2 87 +1 +1 тепло 997.6 995.8
ЮЗ 8 25 км в посл. час дождь 9/9 300 м
[Sc]
+7.3 +4.2 81 +2 +2 по сезону 997.6 995.8 0.0
ЮЗ 8 45 км 9/9 800 м
[Sc Cs]
+8.1 +4.1 76 +4 +4 тепло 997.2 995.4
ЮЗ 9 40 км слаб. дождь 9/9 700 м
[Sc]
+8.4 +4.0 74 +4 +4 тепло 996.9 995.1
ЮЗ 10 40 км в посл. час дождь 9/9 720 м
[Sc]
+8.9 +4.0 71 +4 +4 по сезону 996.7 994.9 0.0
ЮЗ 8 45 км 9/9 720 м
[Sc]
+9.3 +5.2 76 +5 +5 тепло 996.3 994.5
ЮЗ 7 50 км 9/9 960 м
[Sc]
+9.6 +5.2 74 +6 +6 тепло 996.1 994.3
ЮЗ 8 55 км 9/9 700 м
[Sc]
+10.0 +4.3 68 +6 +6 тепло 995.9 994.1
Ю 7 60 км 9/9 2000 м
[Sc]
+10.2 +3.1 61 +7 +7 тепло 995.7 993.9
Ю 7 55 км в посл. час дождь 9/3 1020 м
[Sc Ac As]
+9.7 +2.8 62 +6 +6 тепло 995.5 993.7
Ю 8 50 км в посл. час дождь 9/9 1500 м
[Sc]
+9.4 +2.1 60 +5 +5 тепло 995.6 993.8 +5.9 +10.4 0.0
Ю 8 50 км слаб. дождь 9/9 1500 м
[Sc]
+9.3 +1.9 60 +5 +5 тепло 995.2 993.4
Ю 6 50 км в посл. час дождь 9/9 960 м
[Sc]
+9.0 +2.0 61 +6 +6 тепло 995.0 993.2
Ю 7 50 км {дождь} 9/3 2000 м
[Sc Ac As]
+9.5 +1.8 59 +6 +6 тепло 994.7 992.9 0.0
Ю 6 50 км 9/0
[Ac As]
+9.5 +1.9 59 +6 +6 тепло 994.3 992.5
Ю 6 50 км 9/0
[Ac As Ci fib]
+9.8 +2.0 58 +7 +7 тепло 993.3 991.5
Ю 7 50 км {дождь} 9/0
[Ac As]
+9.4 +2.2 61 +6 +6 тепло 992.4 990.6 0.0
Ю 7 50 км 9/0
[Ac As Ci sp]
+8.5 +2.2 65 +5 +5 тепло 991.8 990.0
Ю 8 50 км 9/0
[Ac As]
+7.9 +2.4 68 +3 +3 тепло 990.8 989.0
Ю 7 50 км слаб. дождь 9/3 1320 м
[Sc Ac As]
+7.8 +2.7 70 +3 +3 тепло 989.8 988.0 0.0
Ю 9 50 км в посл. час дождь 9/0
[Ac As]
+8.4 +2.5 66 +4 +4 тепло 988.5 986.7
Ю 8 50 км 8/0
[Ac As Ci fib]
+8.0 +2.4 68 +3 +3 тепло 987.6 985.8
Ю 9 50 км {дождь} 8/3 1500 м
[Sc Ac As Ci fib]
+8.8 +2.3 64 +4 +4 тепло 986.3 984.5 +7.6 +10.1 0.0
Ю 10 50 км осадки на расстоянии 9/5 2000 м
[Sc Ac As]
+9.8 +2.4 60 +6 +6 тепло 985.7 983.9
Ю 9 40 км слаб. дождь 9/9 870 м
[Cu Sc]
+10.7 +3.5 61 +7 +7 тепло 986.8 985.0
ЮЗ 9 45 км в посл. час дождь 10/9 1000 м
[Cu Sc]
+6.6 +3.1 78 +1 +1 по сезону 988.9 987.1 0.1
ЮЗ 9 50 км 8/6 720 м
[Cu Sc Ac As]
+7.3 +2.9 74 +2 +2 тепло 989.8 988.0
ЮЗ 10 50 км 6/6 750 м
[Cu med, cong]
+7.9 +2.8 70 +3 +3 тепло 990.3 988.5
ЮЗ 11 50 км {дождь} 4/4 900 м
[Cu hum]
+8.1 +1.6 64 +3 +3 по сезону 990.4 988.6
Ю 12 50 км 5/3 1020 м
[Cu hum Ci sp]
+8.2 +1.1 61 +3 +3 тепло 990.4 988.6
ЮЗ 11 50 км 9/5 1110 м
[Cu med, cong Ci sp]
+7.7 +1.0 63 +2 +2 тепло 990.6 988.8
ЮЗ 10 50 км 9/9 1050 м
[Cu Sc]
+8.0 +1.0 61 +3 +3 тепло 990.6 988.8
Ю 9 50 км 9/9 1050 м
[Cu Sc]
+7.9 +1.3 63 +3 +3 тепло 990.5 988.7
Ю 9 50 км 5/3 1050 м
[Cu Sc Ci fib]
+7.4 +1.2 65 +2 +2 тепло 990.5 988.7
Ю 9 50 км 9/9 1000 м
[Cu Sc]
+7.5 +1.2 64 +3 +3 тепло 990.6 988.8 +6.5 +10.9 0.1
Ю 8 50 км 9/9 1380 м
[Sc]
+7.4 +1.3 65 +3 +3 тепло 990.2 988.4
Ю 7 50 км 10/5 1260 м
[Sc Cs]
+6.9 +1.2 67 +2 +2 тепло 989.8 988.0
Ю 6 50 км 10/9 1140 м
[Sc]
+5.8 +0.9 71 +1 +1 по сезону 989.0 987.2
Ю 7 50 км 10/5 1500 м
[Sc As trans]
+6.0 +1.1 71 +1 +1 тепло 988.0 986.2
Ю 7 20 км слаб. дождь 10/9 1260 м
[Sc]
+5.4 +3.1 85 0 0 тепло 987.2 985.4
ЮВ 6 12 км слаб. дождь 10/9 300 м
[Sc]
+5.2 +4.2 93 0 0 по сезону 984.9 983.1 0.5
ЮВ 8 14 км слаб. дождь 10/9 270 м
[Frnb]
+5.8 +4.9 94 0 0 тепло 982.9 981.1
Ю 9 40 км в посл. час дождь 10/9 540 м
[Sc]
+8.1 +6.1 87 +3 +3 тепло 981.6 979.8
Ю 7 20 км слаб. дождь 10/9 540 м
[Sc]
+8.7 +6.4 85 +4 +4 тепло 980.8 979.0 2
Ю 8 20 км слаб. дождь 10/9 660 м
[Sc]
+8.8 +6.7 87 +4 +4 тепло 980.0 978.2
З 9 18 км слаб. дождь 10/9 240 м
[Sc]
+4.1 +2.8 91 -3 -3 тепло 982.4 980.6
З 6 30 км слаб. дождь 10/9 200 м
[Frnb]
+3.0 +2.0 93 -3 -3 по сезону 984.6 982.8 +2.9 +9.2 5
ЮЗ 6 40 км в посл. час дождь 9/8 240 м
[Sc]
+3.1 +1.9 92 -3 -3 тепло 985.8 984.0
ЮЗ 7 35 км 9/9 270 м
[Sc]
+3.7 +1.9 88 -2 -2 тепло 987.0 985.2
ЮЗ 6 30 км {дождь} 9/9 300 м
[Cu Sc]
+4.1 +1.9 86 -1 -1 по сезону 987.6 985.8 0.0
ЮЗ 8 30 км 9/4 360 м
[Cu Sc Ac trans Ci sp]
+4.1 +2.1 87 -2 -2 тепло 988.3 986.5
ЮЗ 8 30 км 9/9 500 м
[Cu Sc]
+5.1 +1.9 80 -1 -1 тепло 989.1 987.3
ЮЗ 8 30 км {дождь} 9/9 600 м
[Cu Sc]
+5.4 +1.4 75 -0 -0 по сезону 989.6 987.8
ЮЗ 8 30 км 9/9 700 м
[Cu Sc]
+5.6 +1.7 76 0 0 тепло 989.9 988.1
ЮЗ 8 30 км 9/8 660 м
[Cu Sc]
+5.7 +1.1 72 0 0 тепло 990.5 988.7
ЮЗ 6 35 км 8/4 720 м
[Cu Sc Ci fib]
+5.3 +0.8 73 +1 +1 по сезону 991.3 989.5
ЮЗ 6 35 км 4/1 720 м
[Cu Sc Ci fib]
+3.9 +0.3 77 -1 -1 тепло 992.1 990.3
ЮЗ 6 35 км 4/1 1080 м
[Sc Ci fib]
+3.6 +0.2 78 -2 -2 тепло 992.5 990.7
ЮЗ 6 35 км 6/4 600 м
[Sc Ci fib]
+3.8 +0.2 77 -2 -2 по сезону 993.2 991.4 +2.8 +5.9 0.0
ЮЗ 5 35 км 5/5 960 м
[Sc]
+2.6 0.0 83 -3 -3 по сезону 994.2 992.3
ЮЗ 5 35 км 9/9 1020 м
[Sc]
+3.4 +0.6 82 -2 -2 тепло 994.6 992.8
ЮЗ 5 30 км ясно +2.3 0.0 85 -3 -3 по сезону 995.3 993.4
ЮЗ 5 25 км 6/0
[Cs]
+2.1 +0.1 87 -3 -3 по сезону 995.9 994.0
ЮЗ 4 25 км 10/0
[Cs]
+1.3 -0.2 90 -4 -4 тепло 996.2 994.3
ЮЗ 4 25 км 10/0
[Cs]
+1.3 -0.1 90 -4 -4 по сезону 996.4 994.5
ЮЗ 4 20 км 10/0
[Cs]
+1.0 -0.1 92 -4 -4 по сезону 996.4 994.5
ЮЗ 3 16 км 10/0
[Cs]
+0.8 -0.1 94 -4 -4 тепло 996.4 994.5
ЮЗ 2 12 км 10/0
[As trans]
+0.7 -0.1 94 -3 -3 по сезону 996.6 994.7
Ю 2 9000 м 10/0
[As trans]
+0.3 -0.4 95 -3 -3 тепло 996.6 994.7
ЮЗ 2 9000 м 10/0
[As trans]
+0.6 -0.2 94 -3 -3 тепло 996.5 994.6
ЮВ 2 7000 м дымка 10/0
[As trans]
+0.4 -0.2 96 -3 -3 по сезону 996.6 994.7 -0.1 +4.2
ЮВ 3 6000 м дымка 10/0
[Ac As]
+0.7 0.0 95 -4 -4 по сезону 996.7 994.8
ЮВ 4 6000 м дымка 10/0
[Ac As]
+1.1 +0.1 93 -4 -4 тепло 996.6 994.7
ЮВ 3 7000 м дымка 10/0
[Ac As]
+1.1 +0.3 94 -4 -3 по сезону 996.1 994.2
Ю 4 8000 м 9/0
[Ac As Ci sp]
+2.1 +0.7 90 -3 -2 по сезону 996.4 994.5
Ю 5 14 км 9/6 800 м
[Sc Ac As]
+3.3 +0.8 84 -2 -2 тепло 996.3 994.4
Ю 4 15 км 9/9 570 м
[Sc]
+3.7 +0.7 81 -1 -1 по сезону 995.4 993.6
Ю 5 25 км 9/6 540 м
[Cu Sc Ci sp]
+4.6 +0.8 76 0 0 тепло 994.8 993.0
ЮЗ 5 30 км 9/3 540 м
[Cu Sc Ci sp]
+4.9 +0.9 75 0 +1 тепло 994.4 992.6
ЮЗ 4 30 км 9/9 600 м
[Cu Sc]
+4.6 +1.2 79 0 0 по сезону 994.6 992.8
ЮЗ 4 30 км 9/9 700 м
[Cu Sc]
+4.4 +0.9 78 0 0 тепло 994.7 992.9
ЮЗ 4 30 км 9/9 1110 м
[Sc]
+4.3 +0.5 76 0 0 тепло 994.7 992.9
Ю 3 30 км 10/9 600 м
[Cu Sc]
+4.3 +0.7 77 +1 +1 по сезону 994.6 992.8 +0.1 +5.2
ЮЗ 2 30 км 10/9 1200 м
[Sc]
+4.1 -0.1 74 +2 +2 тепло 994.5 992.7
Ю 2 30 км 9/9 1050 м
[Sc]
+3.7 -0.6 73 +1 +1 тепло 994.5 992.7
ЮЗ 2 30 км 9/9 700 м
[Sc]
+3.2 -0.2 78 0 0 по сезону 994.6 992.7
Ю 2 30 км 9/9 1440 м
[Sc]
+2.7 0.0 82 -0 -0 тепло 994.6 992.7
ЮВ 2 25 км 9/1 1350 м
[Sc Ac trans Ci fib]
+1.7 0.0 88 -2 -2 тепло 994.6 992.7
ЮВ 1 22 км 9/5 1500 м
[Sc Ac trans]
+1.7 +0.2 90 -0 -0 по сезону 994.7 992.8
ЮВ 1 18 км 9/9 1020 м
[Sc]
+0.8 -0.4 92 -1 -1 тепло 994.6 992.7
В 1 16 км 9/9 900 м
[Sc]
+1.1 0.0 92 -1 -1 тепло 994.5 992.6
В 2 16 км 9/9 1500 м
[Sc]
+0.5 -0.5 93 -3 -3 по сезону 994.6 992.7
В 2 14 км 9/5 1500 м
[Sc Ac trans]
+0.8 -0.2 93 -3 -3 тепло 994.6 992.7
В 1 12 км 9/6 1500 м
[Sc Ac trans]
+0.5 -0.3 94 -2 -2 тепло 994.5 992.6
В 1 12 км 9/9 1500 м
[Sc]
+0.2 -0.6 94 -2 -2 по сезону 994.6 992.7 +0.2 +4.6
В 1 10 км 9/9 1500 м
[Sc]
+0.2 -0.4 96 -2 -2 тепло 995.0 993.1
СВ 1 10 км осадки на расстоянии 9/9 1500 м
[Sc]
+0.2 -0.4 96 -2 -2 тепло 995.7 993.8
ЮВ 2 8000 м слаб. снег 10/10 300 м
[Sc]
+0.7 -0.2 94 -3 -3 по сезону 996.2 994.3 0.0
ЮВ 3 8000 м слаб. дождь 10/9 420 м
[Cu Sc]
+1.6 +0.6 93 -3 -3 по сезону 996.7 994.8
ЮВ 3 18 км в посл. час дождь 9/9 600 м
[Sc]
+2.3 +1.1 92 -2 -2 тепло 996.9 995.0
ЮВ 3 16 км в посл. час дождь 10/9 1200 м
[Sc]
+2.6 +1.1 90 -2 -2 по сезону 997.0 995.1 0.3
Ю 3 15 км в посл. час дождь 10/3
[St As trans Ci]
+2.7 +0.6 86 -1 -1 тепло 996.9 995.0
Ю 2 13 км в посл. час дождь 10/9 330 м
[Sc]
+2.9 +1.2 89 -0 -0 тепло 997.2 995.3
ЮЗ 2 12 км слаб. дождь 10/9 330 м
[Sc]
+2.8 +0.8 87 -0 -0 по сезону 997.5 995.6 0.0
Ю 2 9000 м в посл. час дождь со снегом 9/9 450 м
[Sc]
+2.2 +0.9 91 -1 -1 тепло 997.7 995.8
Ю 2 11 км слаб. дождь со снегом 9/9 450 м
[Cu Sc]
+1.8 +0.6 92 -2 -2 тепло 997.7 995.8
Ю 2 8000 м в посл. час дождь со снегом 9/9 300 м
[Cu Sc]
+1.6 +0.9 95 -2 -2 по сезону 997.8 995.9 -0.4 +2.9 0.8
ЮЗ 3 8000 м 10/9 210 м
[Frnb]
+2.3 +0.9 90 -2 -2 тепло 997.8 995.9
ЮЗ 3 9000 м слаб. морось 10/9 180 м
[St]
+2.0 +1.1 94 -2 -2 тепло 997.8 995.9
ЮЗ 3 15 км слаб. морось 9/9 210 м
[Sc]
+2.0 +0.8 92 -2 -2 по сезону 997.9 996.0 0.0
З 4 12 км слаб. морось 9/9 120 м
[Sc]
+1.8 +0.8 93 -3 -3 по сезону 997.9 996.0
З 2 4800 м слаб. морось 9/9 90 м
[St]
+1.5 +1.0 96 -2 -2 тепло 998.2 996.3
З 2 6000 м слаб. морось {дождь} 9/9 100 м
[Sc]
+1.3 +0.6 95 -2 -2 по сезону 998.3 996.4 0.0
З 4 15 км в посл. час зёрна 9/9 120 м
[Sc]
+1.5 +0.7 94 -4 -4 по сезону 998.5 996.6
З 3 10 км слаб. морось 9/9 150 м
[St]
+1.4 +0.6 94 -3 -3 тепло 998.7 996.8
З 3 15 км в посл. час морось 9/9 150 м
[St]
+1.2 +0.4 94 -3 -3 по сезону 998.9 997.0 0.0
З 3 6000 м слаб. дождь со снегом {морось} 10/10 90 м
[Frnb]
+1.2 +0.4 94 -3 -3 тепло 999.1 997.2
З 3 9000 м в посл. час дождь со снегом {морось} 10/10 120 м
[St]
+1.0 +0.4 96 -4 -4 тепло 999.5 997.6
З 3 7000 м дымка {снег} 10/10 50 м
[St]
+0.8 +0.2 96 -4 -4 по сезону 999.8 997.9 +0.7 +2.4 0.0
З 2 7000 м дымка 9/9 90 м
[St]
+0.7 +0.1 96 -3 -3 тепло 1000.2 998.3
З 2 3800 м в посл. час морось 9/9 60 м
[St]
+0.3 -0.1 97 -4 -4 тепло 1000.9 999.0
З 3 1500 м в посл. час туман 10/10 <50 м
[St]
+0.1 -0.1 99 -5 -5 по сезону 1001.7 999.8 0.0
З 2 4500 м дымка 10/10 60 м
[St]
+0.3 -0.1 97 -4 -4 по сезону 1002.2 1000.3
З 3 8000 м 10/10 90 м
[St]
+0.6 -0.4 93 -4 -4 тепло 1002.8 1000.9
З 3 10 км {морось, туман} 10/10 90 м
[St]
+1.0 +0.2 94 -4 -4 по сезону 1003.2 1001.3
З 2 10 км 10/10 120 м
[St]
+1.2 -0.1 91 -2 -2 по сезону 1003.4 1001.5
З 3 15 км 9/9 150 м
[St]
+1.8 +0.3 90 -3 -2 тепло 1003.9 1002.0
З 3 15 км в посл. час ливневой снег 10/9 180 м
[Cu Sc]
+2.1 +0.5 89 -2 -2 по сезону 1004.3 1002.4 0.0
З 2 15 км осадки на расстоянии 8/8 240 м
[Cu Sc]
+1.5 -0.1 89 -2 -2 тепло 1005.0 1003.1
ЮЗ 2 25 км 8/8 960 м
[Cu Sc]
-0.3 -1.4 92 -4 -4 тепло 1005.3 1003.4
ЮЗ 2 25 км {ливн. снег} 1/1 1000 м
[Sc]
-0.5 -1.1 96 -4 -4 по сезону 1005.9 1004.0 -0.5 +2.2 0.0
ЮЗ 2 20 км местами туман поземный 3/0
[Ci fib]
-0.4 -0.9 96 -4 -4 по сезону 1006.3 1004.4
ЮЗ 3 12 км 4/0
[Ci fib]
-0.6 -1.3 95 -6 -6 тепло 1006.7 1004.8
ЮЗ 3 9000 м 3/0
[Ci fib]
-0.8 -1.5 95 -6 -6 прохладно 1006.9 1005.0
ЮЗ 2 9000 м 3/1 1110 м
[Sc Ci fib]
-1.1 -1.7 96 -5 -5 по сезону 1007.1 1005.2
ЮЗ 2 9000 м 6/6 960 м
[Sc Ci fib]
-1.0 -1.9 94 -5 -5 тепло 1007.2 1005.3
ЮЗ 2 9000 м 3/3 1000 м
[Sc]
-0.7 -1.8 92 -5 -5 по сезону 1007.3 1005.4
Ю 1 7000 м местами туман поземный 1/0
[Ci fib]
-1.8 -2.3 96 -4 -4 по сезону 1007.4 1005.5
В 1 3000 м туман на расстоянии 1/0
[Ci fib]
-2.8 -3.3 96 -5 -5 тепло 1007.6 1005.7
В 1 3000 м туман на расстоянии 8/8 450 м
[Sc]
-2.1 -2.5 97 -5 -5 по сезону 1007.9 1006.0
СВ 1 5000 м дымка 10/9 480 м
[Sc]
-1.7 -2.3 96 -4 -4 по сезону 1008.5 1006.6
СВ 1 5000 м дымка 10/9 480 м
[Sc]
-1.4 -2.0 96 -4 -4 тепло 1008.9 1007.0
СЗ 1 5000 м туман на расстоянии 4/3 300 м
[Sc Ci fib]
-1.8 -2.0 99 -4 -4 по сезону 1009.3 1007.4 -3.0 -0.1
штиль 0 100 м туман 3/0
[Ac trans Ci fib]
-4.2 -4.6 97 -5 -5 по сезону 1010.0 1008.1
З 1 4500 м в посл. час туман 9/8 450 м
[Sc]
-3.5 -3.8 98 -6 -6 тепло 1011.0 1009.1
ЮЗ 1 5000 м дымка {туман} 8/6 300 м
[Sc Ac trans Ci fib]
-1.0 -2.0 93 -3 -3 по сезону 1011.6 1009.7
З 3 6000 м дымка 9/9 360 м
[Sc]
+0.6 -0.6 92 -4 -4 по сезону 1012.2 1010.3
З 4 10 км 3/1 540 м
[Sc Ac trans]
+2.3 -0.2 84 -3 -1 тепло 1012.5 1010.6
З 4 18 км {туман} 9/9 330 м
[Cu Sc]
+3.2 +0.4 82 -1 -1 по сезону 1012.9 1011.0
З 5 25 км осадки на расстоянии 9/9 400 м
[Cu Sc]
+4.2 +1.2 81 -1 -1 тепло 1012.9 1011.0
З 8 8000 м слаб. ливневой дождь со снегом 8/8 180 м
[Cb cap Ac trans]
+1.9 +0.6 91 -5 -5 тепло 1013.0 1011.1
З 5 40 км в посл. час ливневой снег 3/3 400 м
[Cu Sc]
+3.1 +1.1 87 -2 -2 по сезону 1013.6 1011.7 0.3
З 4 40 км 3/3 660 м
[Sc]
+2.4 +0.6 88 -3 -3 по сезону 1014.3 1012.4
З 2 40 км 8/8 900 м
[Sc Ac trans]
+1.9 +0.6 91 -2 -2 тепло 1014.7 1012.8
Местоположение метеостанции Гамбург (Германия): широта 53.63 долгота 10.00 высота над уровнем моря 16 м.
В архиве по умолчанию представлена погода в Гамбурге за последнюю неделю. Архивные данные за месяц целиком и за предыдущие месяцы, начиная с января 2011 года, Вы можете получить, выбрав интересующий диапазон дат из раскрывающегося списка и нажав кнопку "Найти!".
*Определитесь, кто Вы:
Внимание! Время в таблицах - всемирное. Для получения местного времени необходимо прибавить поправку, которая равна 1 ч.
Смотрите также архив погоды в соседних городах и на ближайших метеорологических станциях:
Партнеры нашего сайта:      
Пояснения к столбцам:
  • Ветер - указаны скорость ветра в м/с - средняя за 10 мин, порывы в срок и между сроками (в фигурных скобках) и направление, откуда дует ветер: С - северный,
  • СВ - северо-восточный, В - восточный, ЮВ - юго-восточный, Ю - южный, ЮЗ - юго-западный, З - западный, СЗ - северо-западный.
  • Видимость - горизонтальная дальность видимости в метрах или километрах. При видимости от 1 до 10 км при отсутствии осадков обычно наблюдается дымка, при ухудшении видимости до 1 км и менее - туман. В сухую погоду видимость может ухудшаться дымом, пылью или мглою.
  • Явления - указаны атмосферные явления, наблюдавшиеся в срок или в последний час перед сроком; фигурными скобками обозначены явления, наблюдавшиеся между сроками (за 1-3 часа до срока); квадратными скобками обозначены град или гололедные отложения с указанием их диаметра в мм.
  • Облачность - указаны через наклонную черту общая и нижняя облачность в баллах и высота нижней границы облаков в метрах; квадратными скобками обозначены формы облаков: Ci - перистые, Cs - перисто-слоистые, Cc - перисто-кучевые, Ac - высококучевые, As - высокослоистые, Sc - слоисто-кучевые, Ns - слоисто-дождевые, Cu - кучевые, Cb - кучево-дождевые. Подробнее классификацию облаков см. в Атласе облаков (PDF).
  • T - Температура воздуха - температура, измеренная на высоте 2 м над землей.
  • Td - Температура точки росы - температура, при понижении до которой содержащийся в воздухе водяной пар достигнет насыщения.
  • f - Относительная влажность воздуха - влажноcть воздуха, измеренная на высоте 2 м над землей.
  • Te - Эффективная температура - температура, которую ощущает одетый по сезону человек в тени. Характеристика душности погоды. При расчете учитывается влияние влажности воздуха и скорости ветра на теплоощущения человека.
  • Tes - Эффективная температура на солнце - температура, которую ощущает человек, с поправкой на солнечный нагрев. Характеристика знойности погоды. Зависит от высоты солнца над горизонтом, облачности и скорости ветра. Ночью, в пасмурную погоду, а также при ветре 12 м/с и более поправка равна нулю.
  • P - Атмосферное давление - приведенное к уровню моря атмосферное давление.
  • Po - Атмосферное давление - измеренное на уровне метеостанции атмосферное давление.
  • Tmin - Минимальная температура - минимум температуры воздуха на высоте 2 м над землей.
  • Tmax - Максимальная температура - максимум температуры воздуха на высоте 2 м над землей.
  • R - Количество осадков - Количество выпавших осадков за период времени, мм. При наведении курсора мыши на число - период времени, за который выпало указанное количество осадков.
  • R24 - Количество осадков - Количество выпавших осадков за 24 часа, мм.
  • S - Снежный покров - Высота снежного покрова, см. При наведении курсора мыши на число - состояние снежного покрова и степень покрытия местности в баллах.